| time (UTC) | temp C | wind direction | speed KPH | gust KPH | rain 1hr cm | rain 24hr cm | rain mn cm | humidity % | barometer mb |
| 20260505071207 | 20 | 185 | 4.8 | 8.0 | 0.00 | 0.00 | 0.00 | 65 | 1004.4 |
| 20260505070704 | 20 | 182 | 4.8 | 8.0 | 0.00 | 0.00 | 0.00 | 65 | 1004.8 |
| 20260505070200 | 20 | 166 | 8.0 | 12.9 | 0.00 | 0.00 | 0.00 | 65 | 1004.4 |
| 20260505065656 | 20 | 162 | 6.4 | 17.7 | 0.00 | 0.00 | 0.00 | 64 | 1004.4 |
| 20260505065153 | 20 | 154 | 12.9 | 16.1 | 0.00 | 0.00 | 0.00 | 65 | 1004.3 |
| 20260505064650 | 20 | 176 | 8.0 | 14.5 | 0.00 | 0.00 | 0.00 | 65 | 1004.2 |
| 20260505064148 | 20 | 171 | 8.0 | 16.1 | 0.00 | 0.00 | 0.00 | 65 | 1004.2 |
| 20260505063646 | 20 | 176 | 16.1 | 17.7 | 0.00 | 0.00 | 0.00 | 65 | 1004.1 |
| 20260505063142 | 20 | 186 | 8.0 | 14.5 | 0.00 | 0.00 | 0.00 | 65 | 1004.3 |
| 20260505062638 | 19 | 195 | 12.9 | 14.5 | 0.00 | 0.00 | 0.00 | 65 | 1004.3 |
| 20260505062135 | 19 | 171 | 11.3 | 19.3 | 0.00 | 0.00 | 0.00 | 65 | 1004.5 |
| 20260505061632 | 19 | 176 | 9.7 | 11.3 | 0.00 | 0.00 | 0.00 | 66 | 1004.3 |
| 20260505061131 | 19 | 180 | 8.0 | 17.7 | 0.00 | 0.00 | 0.00 | 65 | 1004.3 |
| 20260505060628 | 19 | 202 | 9.7 | 14.5 | 0.00 | 0.00 | 0.00 | 65 | 1004.5 |
| 20260505060124 | 19 | 172 | 11.3 | 11.3 | 0.00 | 0.00 | 0.00 | 66 | 1004.6 |
| 20260505055620 | 19 | 182 | 8.0 | 12.9 | 0.00 | 0.00 | 0.00 | 66 | 1004.3 |
| 20260505055116 | 19 | 181 | 4.8 | 11.3 | 0.00 | 0.00 | 0.00 | 65 | 1004.4 |
| 20260505054614 | 19 | 187 | 6.4 | 11.3 | 0.00 | 0.00 | 0.00 | 65 | 1004.5 |
| 20260505054112 | 19 | 179 | 8.0 | 9.7 | 0.00 | 0.00 | 0.00 | 65 | 1004.6 |
| 20260505053609 | 20 | 196 | 6.4 | 11.3 | 0.00 | 0.00 | 0.00 | 65 | 1004.8 |
| 20260505053105 | 20 | 198 | 4.8 | 6.4 | 0.00 | 0.00 | 0.00 | 64 | 1005.0 |
| 20260505052602 | 20 | 170 | 6.4 | 8.0 | 0.00 | 0.00 | 0.00 | 64 | 1004.8 |
| 20260505052100 | 20 | 178 | 8.0 | 9.7 | 0.00 | 0.00 | 0.00 | 64 | 1004.8 |
| 20260505051557 | 20 | 210 | 4.8 | 4.8 | 0.00 | 0.00 | 0.00 | 64 | 1005.2 |
| 20260505051055 | 20 | 201 | 3.2 | 4.8 | 0.00 | 0.00 | 0.00 | 64 | 1005.1 |
| 20260505050552 | 20 | 180 | 4.8 | 6.4 | 0.00 | 0.00 | 0.00 | 64 | 1004.6 |
| 20260505041520 | 20 | 66 | 3.2 | 4.8 | 0.00 | 0.00 | 0.00 | 62 | 1005.2 |
| 20260505041018 | 20 | 156 | 3.2 | 8.0 | 0.00 | 0.00 | 0.00 | 62 | 1005.3 |
| 20260505040515 | 20 | 232 | 0.0 | 8.0 | 0.00 | 0.00 | 0.00 | 62 | 1004.7 |
| 20260505040012 | 20 | 175 | 14.5 | 14.5 | 0.00 | 0.00 | 0.00 | 62 | 1004.8 |
| 20260505035508 | 20 | 164 | 4.8 | 14.5 | 0.00 | 0.00 | 0.00 | 63 | 1004.8 |
| 20260505035005 | 20 | 180 | 11.3 | 12.9 | 0.00 | 0.00 | 0.00 | 62 | 1004.8 |
| 20260505034501 | 20 | 187 | 11.3 | 20.9 | 0.00 | 0.00 | 0.00 | 62 | 1004.8 |
| 20260505033958 | 20 | 180 | 6.4 | 12.9 | 0.00 | 0.00 | 0.00 | 63 | 1005.2 |
| 20260505033455 | 20 | 178 | 11.3 | 12.9 | 0.00 | 0.00 | 0.00 | 62 | 1005.1 |
| 20260505032953 | 20 | 157 | 8.0 | 16.1 | 0.00 | 0.00 | 0.00 | 61 | 1005.3 |
| 20260505032450 | 20 | 167 | 9.7 | 14.5 | 0.00 | 0.00 | 0.00 | 62 | 1005.2 |
| 20260505031946 | 20 | 172 | 6.4 | 12.9 | 0.00 | 0.00 | 0.00 | 61 | 1005.2 |
| 20260505031444 | 21 | 182 | 8.0 | 8.0 | 0.00 | 0.00 | 0.00 | 60 | 1005.2 |
| 20260505030941 | 21 | 161 | 8.0 | 9.7 | 0.00 | 0.00 | 0.00 | 60 | 1005.2 |
| 20260505030436 | 21 | 180 | 9.7 | 14.5 | 0.00 | 0.00 | 0.00 | 59 | 1005.1 |
| 20260505025932 | 21 | 177 | 9.7 | 11.3 | 0.00 | 0.00 | 0.00 | 59 | 1005.2 |
| 20260505025429 | 21 | 171 | 12.9 | 14.5 | 0.00 | 0.00 | 0.00 | 58 | 1005.3 |
| 20260505024928 | 21 | 181 | 4.8 | 8.0 | 0.00 | 0.00 | 0.00 | 57 | 1005.2 |
| 20260505024425 | 21 | 195 | 3.2 | 8.0 | 0.00 | 0.00 | 0.00 | 56 | 1005.3 |
| 20260505023922 | 22 | 221 | 6.4 | 12.9 | 0.00 | 0.00 | 0.00 | 56 | 1005.0 |
| 20260505023419 | 22 | 228 | 6.4 | 8.0 | 0.00 | 0.00 | 0.00 | 55 | 1004.7 |
| 20260505022916 | 22 | 225 | 6.4 | 9.7 | 0.00 | 0.00 | 0.00 | 55 | 1005.0 |
| 20260505022414 | 22 | 206 | 11.3 | 14.5 | 0.00 | 0.00 | 0.00 | 54 | 1004.7 |
| 20260505021911 | 22 | 203 | 8.0 | 14.5 | 0.00 | 0.00 | 0.00 | 54 | 1004.7 |
| 20260505021407 | 22 | 179 | 9.7 | 17.7 | 0.00 | 0.00 | 0.00 | 54 | 1004.7 |
| 20260505020903 | 22 | 180 | 4.8 | 14.5 | 0.00 | 0.00 | 0.00 | 54 | 1004.5 |
| 20260505020358 | 22 | 187 | 8.0 | 22.5 | 0.00 | 0.00 | 0.00 | 53 | 1004.5 |
| 20260505015856 | 22 | 225 | 9.7 | 9.7 | 0.00 | 0.00 | 0.00 | 53 | 1004.6 |
| 20260505015353 | 22 | 204 | 8.0 | 17.7 | 0.00 | 0.00 | 0.00 | 52 | 1004.6 |
| 20260505014850 | 22 | 197 | 6.4 | 12.9 | 0.00 | 0.00 | 0.00 | 52 | 1004.2 |
| 20260505014347 | 22 | 188 | 11.3 | 16.1 | 0.00 | 0.00 | 0.00 | 52 | 1004.1 |
| 20260505013844 | 23 | 198 | 4.8 | 14.5 | 0.00 | 0.00 | 0.00 | 51 | 1004.2 |
| 20260505013341 | 23 | 212 | 9.7 | 12.9 | 0.00 | 0.00 | 0.00 | 51 | 1004.4 |
| 20260505012839 | 23 | 205 | 6.4 | 11.3 | 0.00 | 0.00 | 0.00 | 50 | 1004.1 |
| 20260505012337 | 23 | 211 | 6.4 | 12.9 | 0.00 | 0.00 | 0.00 | 50 | 1004.3 |
| 20260505011832 | 23 | 241 | 4.8 | 11.3 | 0.00 | 0.00 | 0.00 | 51 | 1004.3 |
| 20260505011330 | 23 | 203 | 6.4 | 8.0 | 0.00 | 0.00 | 0.00 | 51 | 1004.1 |
| 20260505010825 | 23 | 222 | 6.4 | 9.7 | 0.00 | 0.00 | 0.00 | 51 | 1003.8 |
| 20260505010321 | 23 | 191 | 6.4 | 8.0 | 0.00 | 0.00 | 0.00 | 51 | 1003.8 |
| 20260505005818 | 23 | 218 | 6.4 | 9.7 | 0.00 | 0.00 | 0.00 | 51 | 1003.8 |
| 20260505005315 | 23 | 175 | 3.2 | 6.4 | 0.00 | 0.00 | 0.00 | 51 | 1003.9 |
| 20260505004812 | 23 | 189 | 4.8 | 4.8 | 0.00 | 0.00 | 0.00 | 51 | 1003.8 |
| 20260505004308 | 23 | 174 | 4.8 | 6.4 | 0.00 | 0.00 | 0.00 | 50 | 1003.8 |
| 20260505003806 | 23 | 223 | 3.2 | 4.8 | 0.00 | 0.00 | 0.00 | 49 | 1003.8 |
| 20260505003303 | 24 | 181 | 3.2 | 8.0 | 0.00 | 0.00 | 0.00 | 49 | 1003.6 |
| 20260505002759 | 24 | 226 | 6.4 | 11.3 | 0.00 | 0.00 | 0.00 | 48 | 1003.4 |
| 20260505002256 | 24 | 237 | 4.8 | 14.5 | 0.00 | 0.00 | 0.00 | 47 | 1003.6 |
| 20260505001754 | 25 | 193 | 3.2 | 9.7 | 0.00 | 0.00 | 0.00 | 47 | 1003.6 |
| 20260505001251 | 25 | 213 | 4.8 | 14.5 | 0.00 | 0.00 | 0.00 | 46 | 1003.6 |
| 20260505000748 | 25 | 243 | 12.9 | 16.1 | 0.00 | 0.00 | 0.00 | 45 | 1003.5 |
| 20260505000246 | 25 | 216 | 14.5 | 14.5 | 0.00 | 0.00 | 0.00 | 45 | 1003.7 |
| 20260504235743 | 25 | 223 | 14.5 | 19.3 | 0.00 | 0.00 | 0.00 | 45 | 1003.5 |
| 20260504235239 | 25 | 214 | 12.9 | 17.7 | 0.00 | 0.00 | 0.00 | 45 | 1003.7 |
| 20260504234736 | 25 | 206 | 14.5 | 17.7 | 0.00 | 0.00 | 0.00 | 46 | 1003.8 |
| 20260504234233 | 25 | 226 | 12.9 | 19.3 | 0.00 | 0.00 | 0.00 | 46 | 1003.8 |
| 20260504233730 | 25 | 217 | 14.5 | 17.7 | 0.00 | 0.00 | 0.00 | 46 | 1003.7 |
| 20260504233225 | 25 | 241 | 17.7 | 20.9 | 0.00 | 0.00 | 0.00 | 45 | 1003.6 |
| 20260504232723 | 26 | 188 | 14.5 | 20.9 | 0.00 | 0.00 | 0.00 | 44 | 1003.8 |
| 20260504232220 | 26 | 213 | 6.4 | 16.1 | 0.00 | 0.00 | 0.00 | 46 | 1003.7 |
| 20260504231716 | 26 | 212 | 11.3 | 22.5 | 0.00 | 0.00 | 0.00 | 44 | 1003.6 |
| 20260504231213 | 26 | 195 | 6.4 | 20.9 | 0.00 | 0.00 | 0.00 | 45 | 1003.9 |
| 20260504230709 | 26 | 237 | 20.9 | 20.9 | 0.00 | 0.00 | 0.00 | 43 | 1003.8 |
| 20260504230208 | 26 | 195 | 11.3 | 16.1 | 0.00 | 0.00 | 0.00 | 44 | 1004.0 |
| 20260504225706 | 26 | 192 | 14.5 | 17.7 | 0.00 | 0.00 | 0.00 | 44 | 1003.8 |
| 20260504225202 | 26 | 242 | 22.5 | 30.6 | 0.00 | 0.00 | 0.00 | 43 | 1003.8 |
| 20260504224659 | 26 | 213 | 6.4 | 16.1 | 0.00 | 0.00 | 0.00 | 45 | 1003.8 |
| 20260504224156 | 26 | 222 | 8.0 | 17.7 | 0.00 | 0.00 | 0.00 | 44 | 1003.8 |
| 20260504223653 | 26 | 202 | 8.0 | 22.5 | 0.00 | 0.00 | 0.00 | 45 | 1003.7 |
| 20260504223148 | 26 | 202 | 6.4 | 20.9 | 0.00 | 0.00 | 0.00 | 45 | 1003.7 |
| 20260504222645 | 26 | 197 | 19.3 | 32.2 | 0.00 | 0.00 | 0.00 | 43 | 1003.8 |
| 20260504222142 | 27 | 255 | 12.9 | 27.4 | 0.00 | 0.00 | 0.00 | 43 | 1003.9 |
| 20260504221640 | 27 | 200 | 19.3 | 35.4 | 0.00 | 0.00 | 0.00 | 42 | 1004.0 |
| 20260504221137 | 27 | 226 | 11.3 | 20.9 | 0.00 | 0.00 | 0.00 | 44 | 1003.9 |
| 20260504220633 | 27 | 210 | 4.8 | 19.3 | 0.00 | 0.00 | 0.00 | 46 | 1003.9 |
| 20260504220131 | 26 | 229 | 16.1 | 20.9 | 0.00 | 0.00 | 0.00 | 44 | 1003.8 |
| 20260504215626 | 26 | 170 | 9.7 | 25.7 | 0.00 | 0.00 | 0.00 | 45 | 1003.8 |
| 20260504215124 | 26 | 206 | 20.9 | 32.2 | 0.00 | 0.00 | 0.00 | 43 | 1003.9 |
| 20260504214620 | 26 | 180 | 16.1 | 27.4 | 0.00 | 0.00 | 0.00 | 43 | 1003.6 |
| 20260504214117 | 26 | 209 | 17.7 | 24.1 | 0.00 | 0.00 | 0.00 | 44 | 1004.0 |
| 20260504213613 | 26 | 197 | 16.1 | 27.4 | 0.00 | 0.00 | 0.00 | 43 | 1004.0 |
| 20260504213110 | 26 | 180 | 16.1 | 20.9 | 0.00 | 0.00 | 0.00 | 45 | 1004.1 |
| 20260504212606 | 26 | 256 | 11.3 | 19.3 | 0.00 | 0.00 | 0.00 | 45 | 1003.9 |
| 20260504212103 | 26 | 213 | 16.1 | 27.4 | 0.00 | 0.00 | 0.00 | 44 | 1003.9 |
| 20260504211600 | 26 | 246 | 12.9 | 25.7 | 0.00 | 0.00 | 0.00 | 43 | 1004.0 |
| 20260504211057 | 26 | 234 | 22.5 | 29.0 | 0.00 | 0.00 | 0.00 | 42 | 1004.1 |
| 20260504210555 | 26 | 228 | 6.4 | 17.7 | 0.00 | 0.00 | 0.00 | 43 | 1004.1 |
| 20260504210051 | 27 | 221 | 11.3 | 27.4 | 0.00 | 0.00 | 0.00 | 42 | 1004.1 |
| 20260504205549 | 27 | 208 | 14.5 | 29.0 | 0.00 | 0.00 | 0.00 | 42 | 1004.3 |
| 20260504205046 | 27 | 230 | 19.3 | 24.1 | 0.00 | 0.00 | 0.00 | 44 | 1004.3 |
| 20260504204544 | 26 | 212 | 11.3 | 32.2 | 0.00 | 0.00 | 0.00 | 42 | 1004.3 |
| 20260504204043 | 26 | 217 | 20.9 | 33.8 | 0.00 | 0.00 | 0.00 | 44 | 1004.5 |
| 20260504203541 | 26 | 233 | 14.5 | 32.2 | 0.00 | 0.00 | 0.00 | 42 | 1004.4 |
| 20260504203038 | 26 | 196 | 12.9 | 27.4 | 0.00 | 0.00 | 0.00 | 44 | 1004.8 |
| 20260504202533 | 26 | 222 | 9.7 | 16.1 | 0.00 | 0.00 | 0.00 | 42 | 1004.4 |
| 20260504202031 | 26 | 249 | 19.3 | 29.0 | 0.00 | 0.00 | 0.00 | 42 | 1004.8 |
| 20260504201527 | 26 | 226 | 6.4 | 16.1 | 0.00 | 0.00 | 0.00 | 46 | 1005.0 |
| 20260504201025 | 26 | 230 | 11.3 | 35.4 | 0.00 | 0.00 | 0.00 | 42 | 1005.1 |
| 20260504200521 | 26 | 211 | 19.3 | 38.6 | 0.00 | 0.00 | 0.00 | 43 | 1005.0 |
| 20260504200018 | 26 | 241 | 12.9 | 33.8 | 0.00 | 0.00 | 0.00 | 43 | 1005.0 |
| 20260504195514 | 26 | 226 | 11.3 | 24.1 | 0.00 | 0.00 | 0.00 | 44 | 1004.8 |
| 20260504195011 | 26 | 211 | 20.9 | 32.2 | 0.00 | 0.00 | 0.00 | 43 | 1005.0 |
| 20260504194508 | 26 | 223 | 24.1 | 25.7 | 0.00 | 0.00 | 0.00 | 43 | 1004.8 |
| 20260504194003 | 26 | 245 | 14.5 | 27.4 | 0.00 | 0.00 | 0.00 | 43 | 1005.1 |
| 20260504193500 | 26 | 244 | 9.7 | 24.1 | 0.00 | 0.00 | 0.00 | 43 | 1005.1 |
| 20260504192959 | 26 | 193 | 11.3 | 19.3 | 0.00 | 0.00 | 0.00 | 43 | 1005.2 |
| 20260504192456 | 26 | 227 | 24.1 | 37.0 | 0.00 | 0.00 | 0.00 | 43 | 1005.5 |
| 20260504191955 | 26 | 175 | 19.3 | 38.6 | 0.00 | 0.00 | 0.00 | 42 | 1005.4 |
| 20260504191452 | 26 | 216 | 11.3 | 29.0 | 0.00 | 0.00 | 0.00 | 45 | 1005.2 |
| 20260504190947 | 26 | 189 | 14.5 | 32.2 | 0.00 | 0.00 | 0.00 | 45 | 1005.3 |
| 20260504190443 | 26 | 253 | 16.1 | 22.5 | 0.00 | 0.00 | 0.00 | 45 | 1005.2 |
| 20260504185940 | 26 | 223 | 20.9 | 33.8 | 0.00 | 0.00 | 0.00 | 43 | 1005.3 |
| 20260504185438 | 26 | 212 | 12.9 | 27.4 | 0.00 | 0.00 | 0.00 | 43 | 1005.3 |
| 20260504184933 | 26 | 232 | 25.7 | 35.4 | 0.00 | 0.00 | 0.00 | 42 | 1005.3 |
| 20260504184429 | 26 | 233 | 22.5 | 29.0 | 0.00 | 0.00 | 0.00 | 43 | 1005.4 |
| 20260504183925 | 26 | 206 | 17.7 | 27.4 | 0.00 | 0.00 | 0.00 | 44 | 1005.6 |
| 20260504183423 | 26 | 213 | 16.1 | 29.0 | 0.00 | 0.00 | 0.00 | 45 | 1005.6 |
| 20260504182921 | 26 | 221 | 4.8 | 24.1 | 0.00 | 0.00 | 0.00 | 46 | 1005.7 |
| 20260504182417 | 26 | 234 | 32.2 | 37.0 | 0.00 | 0.00 | 0.00 | 43 | 1005.6 |
| 20260504181914 | 26 | 246 | 14.5 | 22.5 | 0.00 | 0.00 | 0.00 | 44 | 1005.5 |
| 20260504181412 | 26 | 223 | 17.7 | 27.4 | 0.00 | 0.00 | 0.00 | 45 | 1005.4 |
| 20260504180910 | 26 | 259 | 29.0 | 33.8 | 0.00 | 0.00 | 0.00 | 44 | 1005.5 |
| 20260504180409 | 26 | 232 | 14.5 | 25.7 | 0.00 | 0.00 | 0.00 | 44 | 1005.5 |
| 20260504175906 | 25 | 240 | 20.9 | 30.6 | 0.00 | 0.00 | 0.00 | 43 | 1005.5 |
| 20260504175403 | 26 | 213 | 17.7 | 33.8 | 0.00 | 0.00 | 0.00 | 44 | 1005.5 |
| 20260504174901 | 26 | 201 | 12.9 | 19.3 | 0.00 | 0.00 | 0.00 | 46 | 1005.5 |
| 20260504174358 | 25 | 271 | 20.9 | 38.6 | 0.00 | 0.00 | 0.00 | 43 | 1005.5 |
| 20260504173855 | 25 | 236 | 6.4 | 24.1 | 0.00 | 0.00 | 0.00 | 45 | 1005.5 |
| 20260504173351 | 25 | 249 | 19.3 | 32.2 | 0.00 | 0.00 | 0.00 | 45 | 1005.5 |
| 20260504172849 | 25 | 221 | 19.3 | 30.6 | 0.00 | 0.00 | 0.00 | 45 | 1005.5 |
| 20260504172345 | 25 | 231 | 17.7 | 41.8 | 0.00 | 0.00 | 0.00 | 46 | 1005.5 |
| 20260504171841 | 25 | 233 | 19.3 | 29.0 | 0.00 | 0.00 | 0.00 | 46 | 1005.3 |
| 20260504171339 | 25 | 237 | 16.1 | 37.0 | 0.00 | 0.00 | 0.00 | 45 | 1005.4 |
| 20260504170836 | 25 | 218 | 33.8 | 38.6 | 0.00 | 0.00 | 0.00 | 44 | 1005.5 |
| 20260504170332 | 25 | 187 | 17.7 | 37.0 | 0.00 | 0.00 | 0.00 | 44 | 1005.6 |
| 20260504160251 | 24 | 199 | 16.1 | 24.1 | 0.00 | 0.00 | 0.00 | 46 | 1005.8 |
| 20260504150716 | 22 | 230 | 8.0 | 25.7 | 0.00 | 0.00 | 0.00 | 45 | 1006.2 |
| 20260504150213 | 22 | 193 | 11.3 | 17.7 | 0.00 | 0.00 | 0.00 | 50 | 1006.2 |
| 20260504141142 | 21 | 217 | 24.1 | 27.4 | 0.00 | 0.00 | 0.00 | 49 | 1006.9 |
| 20260504140639 | 20 | 191 | 14.5 | 20.9 | 0.00 | 0.00 | 0.00 | 49 | 1007.0 |
| 20260504140134 | 20 | 192 | 12.9 | 17.7 | 0.00 | 0.00 | 0.00 | 50 | 1006.9 |
| 20260504130603 | 18 | 216 | 17.7 | 27.4 | 0.00 | 0.00 | 0.00 | 52 | 1007.5 |
| 20260504110450 | 18 | 181 | 4.8 | 17.7 | 0.00 | 0.00 | 0.00 | 52 | 1007.8 |
| 20260504100413 | 18 | 179 | 14.5 | 19.3 | 0.00 | 0.00 | 0.00 | 50 | 1008.1 |
| 20260504081806 | 19 | 234 | 9.7 | 25.7 | 0.00 | 0.00 | 0.00 | 48 | 1008.0 |
| 20260504081303 | 19 | 186 | 9.7 | 14.5 | 0.00 | 0.00 | 0.00 | 49 | 1008.0 |
| 20260504080759 | 20 | 225 | 12.9 | 16.1 | 0.00 | 0.00 | 0.00 | 48 | 1008.1 |
| 20260504080255 | 20 | 170 | 6.4 | 25.7 | 0.00 | 0.00 | 0.00 | 49 | 1008.2 |